BOX711 VOBL-EDDP

Flight info

Callsign BOX711
Flight time N/A
Altitude 33000
Route LATID8A LATID W57 VIRAM Q22 HIA DCT ALBED/N0496F340 Q24 PUKES P628 RK G202 ZB L750 RANAH B449 MARAD/N0485F360 B449 DUKAN L850 ADEKI N644 BADIR DCT NOLGA UG261 TBN UM11 CRM UL746 ADUMU/N0474F380 UL746 ODERO L746 LUGEB DCT NARKA DCT DEMOP DCT ODLIV DCT BEFRE DCT IVQOQ T951 YAWOY YAWOY1R
Aircraft B77L/H-SDE1E2E3FGHIJ2J3J4J5M1RWXY/LB1D1

Departure

Time 2026-04-27 17:21
Airport Kempegowda International Airport Bengaluru (VOBL)

Arrival

Time N/A
Airport Leipzig/Halle Airport (EDDP)
Time Latitude Longitude Altitude Speed Heading
2026-04-27 16:46 13.20187 77.69670 3018 ft 0 kts 180°
2026-04-27 17:10 13.20206 77.69670 3019 ft 4 kts 180°
2026-04-27 17:10 13.20231 77.69671 3018 ft 3 kts 180°
2026-04-27 17:10 13.20253 77.69673 3023 ft 4 kts 210°
2026-04-27 17:11 13.20267 77.69690 3020 ft 4 kts 260°
2026-04-27 17:11 13.20268 77.69718 3023 ft 0 kts 270°
2026-04-27 17:13 13.20269 77.69703 3025 ft 6 kts 271°
2026-04-27 17:14 13.20271 77.69661 3020 ft 7 kts 273°
2026-04-27 17:14 13.20274 77.69609 3016 ft 8 kts 272°
2026-04-27 17:14 13.20274 77.69543 3016 ft 10 kts 270°
2026-04-27 17:14 13.20275 77.69468 3016 ft 10 kts 270°
2026-04-27 17:15 13.20275 77.69398 3015 ft 7 kts 270°
2026-04-27 17:15 13.20289 77.69348 3017 ft 7 kts 310°
2026-04-27 17:15 13.20337 77.69332 3015 ft 7 kts 356°
2026-04-27 17:15 13.20388 77.69332 3015 ft 7 kts
2026-04-27 17:16 13.20442 77.69333 3015 ft 8 kts
2026-04-27 17:16 13.20498 77.69333 3015 ft 8 kts 359°
2026-04-27 17:16 13.20540 77.69301 3015 ft 8 kts 291°
2026-04-27 17:16 13.20543 77.69244 3015 ft 8 kts 269°
2026-04-27 17:17 13.20543 77.69170 3015 ft 13 kts 270°
2026-04-27 17:17 13.20544 77.69072 3015 ft 14 kts 270°
2026-04-27 17:17 13.20545 77.68974 3015 ft 14 kts 270°
2026-04-27 17:18 13.20547 77.68778 3016 ft 14 kts 270°
2026-04-27 17:18 13.20548 77.68699 3016 ft 7 kts 270°
2026-04-27 17:18 13.20551 77.68647 3016 ft 7 kts 284°
2026-04-27 17:18 13.20590 77.68617 3016 ft 7 kts 346°
2026-04-27 17:19 13.20641 77.68616 3016 ft 7 kts
2026-04-27 17:19 13.20687 77.68616 3018 ft 5 kts
2026-04-27 17:19 13.20716 77.68633 3015 ft 5 kts 63°
2026-04-27 17:19 13.20719 77.68687 3015 ft 16 kts 89°
2026-04-27 17:20 13.20717 77.68978 3016 ft 71 kts 90°
2026-04-27 17:20 13.20712 77.69680 3016 ft 127 kts 90°
2026-04-27 17:20 13.20702 77.70757 3016 ft 173 kts 91°
2026-04-27 17:20 13.20697 77.72106 3103 ft 198 kts 92°
2026-04-27 17:21 13.20681 77.73503 3576 ft 197 kts 90°
2026-04-27 17:21 13.21171 77.74816 3921 ft 204 kts 47°
2026-04-27 17:21 13.22444 77.75489 4224 ft 211 kts 21°
2026-04-27 17:21 13.23667 77.76266 4329 ft 208 kts 63°
2026-04-27 17:22 13.24108 77.77627 4570 ft 199 kts 86°
2026-04-27 17:22 13.24294 77.79068 4829 ft 218 kts 86°
2026-04-27 17:22 13.24496 77.80693 4982 ft 241 kts 85°
2026-04-27 17:22 13.25096 77.82358 5170 ft 261 kts 53°
2026-04-27 17:23 13.26621 77.83433 5684 ft 277 kts 17°
2026-04-27 17:23 13.28549 77.83569 6268 ft 280 kts 359°
2026-04-27 17:23 13.30518 77.83531 6876 ft 286 kts
2026-04-27 17:23 13.32501 77.83376 7447 ft 290 kts 342°
2026-04-27 17:24 13.34265 77.82428 8067 ft 291 kts 330°
2026-04-27 17:24 13.36011 77.81357 8763 ft 292 kts 332°
2026-04-27 17:24 13.37766 77.80330 9646 ft 288 kts 333°
2026-04-27 17:24 13.39504 77.79317 10390 ft 287 kts 332°
2026-04-27 17:25 13.41264 77.78292 10889 ft 296 kts 332°
2026-04-27 17:25 13.43072 77.77236 11455 ft 301 kts 332°
2026-04-27 17:25 13.44888 77.76176 12193 ft 300 kts 332°
2026-04-27 17:25 13.46712 77.75113 12840 ft 304 kts 332°
2026-04-27 17:26 13.48569 77.74030 13331 ft 314 kts 332°
2026-04-27 17:26 13.50538 77.72884 13473 ft 335 kts 332°
2026-04-27 17:26 13.52664 77.71864 13603 ft 351 kts 345°
2026-04-27 17:26 13.55121 77.71434 13764 ft 368 kts 359°
2026-04-27 17:27 13.57725 77.71613 13894 ft 383 kts
2026-04-27 17:27 13.60403 77.71959 14285 ft 393 kts
2026-04-27 17:27 13.63129 77.72315 14845 ft 397 kts
2026-04-27 17:27 13.65883 77.72667 15435 ft 402 kts
2026-04-27 17:28 13.68664 77.73011 15998 ft 406 kts
2026-04-27 17:28 13.71489 77.73352 16536 ft 411 kts
2026-04-27 17:28 13.77192 77.74027 17625 ft 419 kts
2026-04-27 17:29 13.80089 77.74366 18216 ft 421 kts
2026-04-27 17:29 13.83014 77.74710 18627 ft 426 kts
2026-04-27 17:29 13.85975 77.75057 19071 ft 430 kts
2026-04-27 17:29 13.88951 77.75406 19610 ft 431 kts
2026-04-27 17:30 13.91946 77.75759 20001 ft 435 kts
2026-04-27 17:30 13.97968 77.76787 20880 ft 441 kts 15°
2026-04-27 17:30 14.00855 77.77754 21293 ft 444 kts 20°
2026-04-27 17:31 14.03783 77.78846 21647 ft 449 kts 20°
2026-04-27 17:31 14.06723 77.79946 22084 ft 452 kts 20°
2026-04-27 17:31 14.09689 77.81048 22496 ft 455 kts 20°
2026-04-27 17:31 14.12679 77.82151 22891 ft 458 kts 19°
2026-04-27 17:32 14.15518 77.83190 23265 ft 461 kts 19°
2026-04-27 17:32 14.21606 77.85411 23912 ft 467 kts 19°
2026-04-27 17:32 14.24679 77.86531 24228 ft 470 kts 19°
2026-04-27 17:33 14.27772 77.87658 24555 ft 472 kts 19°
2026-04-27 17:33 14.30835 77.88775 24897 ft 474 kts 19°
2026-04-27 17:33 14.33949 77.89911 25227 ft 476 kts 18°
2026-04-27 17:33 14.37083 77.91056 25531 ft 479 kts 18°
2026-04-27 17:34 14.40237 77.92208 25838 ft 482 kts 18°
2026-04-27 17:34 14.43408 77.93366 26149 ft 485 kts 18°
2026-04-27 17:34 14.46604 77.94503 26459 ft 487 kts 16°
2026-04-27 17:34 14.49884 77.95385 26747 ft 488 kts